カタログに戻る

STARLINK-3760

運用中通信VLEO
NORAD 52298·PAYLOAD·🇺🇸 United States

打ち上げ Apr 21, 2022 から Cape Canaveral Space Force Station

Loading…

次のパス (今後24時間)

TLE

最新Source: CelesTrak SupGP

元期: Sep 15, 2026, 02:06 UTC

1 52298C 22041AP  26258.08798611  .00044534  00000+0  13160-2 0  2588
2 52298  53.1581 316.6680 0001260  87.8932 331.5029 15.34364139    10

AllMySatでSTARLINK-3760をリアルタイム追跡

Download on the App Store